Regional Weather Roundup
Issued by NWS

Home | Current Version | Previous Version | Text Only | Print | Product List | Glossary On
Versions: 1 2 3 4 5 6 7 8 9 10 11 12 13 14 15 16 17 18 19 20 21 22 23 24 25 26 27 28 29 30 31 32 33 34 35 36 37 38 39 40 41 42 43 44 45 46 47 48 49 50
000
ASUS43 KDTX 041710
RWRMI
MICHIGAN HOURLY REGIONAL WEATHER ROUNDUP
NATIONAL WEATHER SERVICE DETROIT/PONTIAC MI
100 PM EDT WED MAY 04 2016

NOTE: "FAIR" INDICATES FEW OR NO CLOUDS BELOW 12,000 FEET WITH NO
SIGNIFICANT WEATHER AND/OR OBSTRUCTION TO VISIBILITY.

MIZ047>049-052>055-059>063-066>070-074>076-081>083-041800-
SOUTHEAST LOWER MICHIGAN

CITY           SKY/WX    TMP DP  RH WIND       PRES   REMARKS
ADRIAN         LGT RAIN  53  48  83 SW12      29.56F
ALMA           LGT RAIN  46  45  96 N12G18    29.59S
ANN ARBOR      CLOUDY    57  46  66 S15       29.56F
BAD AXE        CLOUDY    59  45  59 SE10G20   29.60S
CARO           CLOUDY    61  47  59 SE6       29.56F
DETROIT CITY   MOSUNNY   59  46  62 S10       29.59F
DETROIT        CLOUDY    57  47  69 SE12      29.59S
FLINT          MOSUNNY   63  45  51 S15       29.55F
GROSSE ILE     CLOUDY    55  48  76 SE12      29.59S
HILLSDALE      CLOUDY    46  42  86 W13G20    29.57R
HOWELL         RAIN      55  46  71 S8        29.54F

CITY           SKY/WX    TMP DP  RH WIND       PRES   REMARKS
JACKSON        LGT RAIN  50  47  89 SW9       29.55S
LAMBERTVILLE   CLOUDY    60  46  59 S13G18    29.57F
LANSING        LGT RAIN  50  47  89 W6        29.56S
LAPEER         FAIR      61  44  54 SE17G25   29.57F
MASON          CLOUDY    50  47  87 SE6       29.55S
MONROE         LGT RAIN  55  50  82 SE15G26   29.58S
MT. CLEMENS    CLOUDY    57  49  74 SE13      29.59F
PONTIAC        LGT RAIN  56  47  71 E9G18     29.56F
PORT HOPE        N/A     52  46  80 E12       29.60S
PORT HURON     CLOUDY    61  45  55 S16       29.61S
TRI CITIES     CLOUDY    54  47  77 N17       29.58S
MIDLAND        CLOUDY    51  47  86 NE8       29.58S
TROY           PTSUNNY   61  44  53 SE13G21   29.60S
SAGINAW HB     CLOUDY    59  45  58 CALM      29.56S
$$
MIZ043>046-050>051-056>058-064>065-071>073-077>080-041800-
SOUTHWEST LOWER MICHIGAN

CITY           SKY/WX    TMP DP  RH WIND       PRES   REMARKS
BATTLE CREEK   LGT RAIN  46  42  86 NW14      29.60R
BENTON HARBOR  CLOUDY    43  37  79 NW13G29   29.71R
BIG RAPIDS     RAIN      43  40  87 N14       29.65R
COLDWATER      CLOUDY    47  42  81 NW17G24   29.60R
FREMONT        DRIZZLE   43  42  97 N21G26    29.66R
HOLLAND        LGT RAIN N/A N/A N/A NW14      29.67R
GRAND RAPIDS   RAIN      46  42  86 N17G23    29.62R FOG
IONIA          RAIN      44  43  96 N10G18    29.59R
KALAMAZOO      LGT RAIN  46  41  82 NW16      29.63R
LUDINGTON      DRIZZLE   40  36  84 N21G31    29.74R WCI  31
MARSHALL       RAIN      46  43  89 W10G22    29.57R
MOUNT PLEASANT MIX PCPN  46  44  95 N8        29.60R
MUSKEGON       LGT RAIN  45  39  79 N22G31    29.68R
SOUTH HAVEN    CLOUDY    42  39  89 N17G31    29.69R
$$
MIZ016>042-041800-
NORTHERN LOWER MICHIGAN

CITY           SKY/WX    TMP DP  RH WIND       PRES   REMARKS
ALPENA         CLOUDY    47  44  90 N13       29.68R
BEAVER ISLAND  MOSUNNY   45  36  72 N12G22    29.75R
BELLAIRE       CLOUDY    42  39  90 N13G18    29.72R
CADILLAC       LGT RAIN  40  38  93 N15G23    29.66R WCI  32
CHARLEVOIX     CLOUDY    40  39  94 N10       29.77R WCI  34
FRANKFORT      CLOUDY    42  37  80 N14G24    29.75R
GAYLORD        LGT RAIN  45  44  97 N6        29.68R FOG
GRAYLING       LGT RAIN  45  43  93 VRB9      29.68R
HARBOR SPRINGS CLOUDY    43  41  92 N9        29.72R
HOUGHTON LAKE  RAIN      44  41  89 N12G18    29.65R FOG
MANISTEE       CLOUDY    41  34  75 N14G25    29.74R
OSCODA         CLOUDY    53  41  62 N7        29.63S
PELLSTON       CLOUDY    46  41  82 N12       29.72R
ROGERS CITY    MIX PCPN  42  41  96 N6        29.71R
TRAVERSE CITY  LGT RAIN  42  38  85 N8        29.72R
$$
MIZ007>008-015-041800-
EASTERN UPPER MICHIGAN

CITY           SKY/WX    TMP DP  RH WIND       PRES   REMARKS
KINROSS          N/A     45  39  81 NW17      29.72R
MACKINAC ISLAN CLOUDY    47  44  88 N14G21    29.72R
NEWBERRY       CLOUDY    43  34  70 N12G23    29.77R
S. S. MARIE    CLOUDY    50  39  66 N12       29.72S
MUNISING         N/A     39  32  76 N24G33    29.85R WCI  28
$$
MIZ004>006-011>014-085-041800-
CENTRAL UPPER MICHIGAN

CITY           SKY/WX    TMP DP  RH WIND       PRES   REMARKS
MANISTIQUE     CLOUDY    45  33  61 N18G30    29.78R
ESCANABA       CLOUDY    43  32  65 N18G26    29.82R
MENOMINEE      CLOUDY    48  36  61 N13       29.83R
SAWYER-GWINN   CLOUDY    36  32  87 N20G29    29.86R WCI  25
$$
MIZ001>003-009>011-084-041800-
WESTERN UPPER MICHIGAN

CITY           SKY/WX    TMP DP  RH WIND       PRES   REMARKS
IRON MOUNTAIN  CLOUDY    45  32  60 N18G26    29.85R
HOUGHTON       CLOUDY    40  29  64 N21G30    29.92R WCI  30
COPPER HARBOR    N/A     38  33  82 NE16      29.93R WCI  29
IRONWOOD         N/A     43  30  61 N13G20    29.94R
$$

ABBREVIATIONS USED IN REMARKS
   TC - TEMPERATURE IN CELSIUS
  WCI - WIND CHILL INDEX
   HX - HEAT INDEX
  VSB - VISIBILITY




USA.gov is the U.S. government's official web portal to all federal, state and local government web resources and services.